User: anonymous   Login
Location: Unspecified
(0.0000°N, 0.0000°E)
Time: 07:00:17
(UTC+00:00)
Language:

OFEQ 7 - Orbit

View from above orbital plane
View from above orbital plane
View from above satellite
View from above satellite

Ground track
Ground track

The orbit data is extracted from the following two-line orbital elements,

1 31601U 07025A   18343.70441220 0.00001700  00000-0  66113-4 0    06
2 31601 141.7183  69.7337 0005818 239.7237 120.2755 15.25124995    03
Epoch (UTC): 09 December 2018 16:54:21
Eccentricity: 0.0005818
inclination: 141.7183°
perigee height: 486 km
apogee height: 494 km
right ascension of ascending node: 69.7337°
argument of perigee: 239.7237°
revolutions per day: 15.25124995
mean anomaly at epoch: 120.2755°
orbit number at epoch: 0

The dashed part of the orbit path shows where the satellite is in the earth's shadow,  

DLR